contact:dominique.lefevre@mio.osupytheas.fr, maurice.libes@osupytheas.fr, didier.mallarino@osupytheas.fr
Project:EMSO http://www.emso-fr.org/EMSO-France
Depth: 2436.0 m
Title:EMSO Ligure Ouest : Data MII capteur AQUADOPP
Date,Latitude,Longitude,X_East,Y_North,Z_Up,Amplitude_X,Amplitude_Y,Amplitude_Z,Batterie,SoundSpeed,Heading,Pitch,Roll,Pressure,TIS,Speed,Direction
, degrees North, degrees East, m.s-1, m.s-1,m.s-1, 1, 1, 1, Volt, m.s-1, degree, degree, degree, dbar, degree_C, m.s-1, degree
2020-01-18T00:04:03,42.805,6.029,0.025,0.01,-0.026,110.0,113.0,105.0,13.4,1505.2,324.1,-0.8,1.8,2470.296,13.3,0.026,68.2
2020-01-18T00:07:03,42.805,6.029,0.059,-0.006,-0.029,110.0,113.0,107.0,13.3,1505.3,324.3,-0.7,1.9,2470.285,13.31,0.059,95.8
2020-01-18T00:10:03,42.805,6.029,0.018,-0.031,-0.044,110.0,113.0,107.0,13.4,1505.3,326.7,-0.7,1.8,2470.272,13.32,0.035,149.9
2020-01-18T00:13:03,42.805,6.029,0.03,0.001,-0.014,110.0,112.0,106.0,13.4,1505.3,324.4,-0.8,1.8,2470.29,13.32,0.03,88.1
2020-01-18T00:16:03,42.805,6.029,0.028,-0.002,0.003,110.0,113.0,106.0,13.3,1505.3,324.7,-0.7,1.8,2470.261,13.32,0.028,94.1
2020-01-18T00:19:03,42.805,6.029,0.025,-0.013,-0.05,111.0,114.0,106.0,13.4,1505.3,323.7,-0.7,1.8,2470.292,13.32,0.028,117.5
2020-01-18T00:22:03,42.805,6.029,0.038,-0.014,0.006,110.0,113.0,105.0,13.4,1505.3,324.5,-0.7,1.8,2470.266,13.32,0.04,110.2
2020-01-18T00:25:03,42.805,6.029,0.027,-0.005,-0.012,111.0,114.0,105.0,13.4,1505.3,324.0,-0.7,1.8,2470.319,13.32,0.027,100.5
2020-01-18T00:28:03,42.805,6.029,0.037,0.009,-0.029,111.0,114.0,106.0,13.3,1505.3,326.7,-0.7,1.8,2470.26,13.32,0.038,76.3
2020-01-18T00:31:03,42.805,6.029,0.024,-0.029,-0.016,110.0,112.0,106.0,13.3,1505.3,326.5,-0.7,1.9,2470.237,13.32,0.037,140.4
2020-01-18T00:34:03,42.805,6.029,0.043,-0.013,-0.029,111.0,113.0,105.0,13.3,1505.3,326.5,-0.7,1.8,2470.306,13.32,0.044,106.8
2020-01-18T00:37:03,42.805,6.029,0.048,-0.016,-0.018,110.0,113.0,106.0,13.4,1505.3,326.9,-0.7,1.9,2470.25,13.32,0.05,108.4
2020-01-18T00:40:03,42.805,6.029,0.05,-0.017,0.023,111.0,112.0,107.0,13.4,1505.3,327.7,-0.7,1.8,2470.278,13.32,0.052,108.8
2020-01-18T00:43:03,42.805,6.029,0.045,-0.024,0.036,110.0,112.0,105.0,13.3,1505.3,326.8,-0.7,1.8,2470.258,13.32,0.051,118.1
2020-01-18T00:46:03,42.805,6.029,0.041,-0.013,0.011,112.0,111.0,106.0,13.3,1505.3,326.3,-0.7,1.8,2470.242,13.33,0.043,107.6
2020-01-18T00:49:03,42.805,6.029,0.04,-0.045,-0.02,110.0,112.0,105.0,13.4,1505.3,325.5,-0.7,1.9,2470.253,13.32,0.06,138.4
2020-01-18T00:52:03,42.805,6.029,0.023,-0.024,-0.025,109.0,111.0,106.0,13.4,1505.3,327.5,-0.7,1.9,2470.253,13.32,0.033,136.2
2020-01-18T00:55:03,42.805,6.029,0.017,-0.01,0.002,110.0,110.0,106.0,13.3,1505.3,324.6,-0.7,1.8,2470.25,13.32,0.019,120.5
2020-01-18T00:58:03,42.805,6.029,0.031,-0.02,-0.013,108.0,111.0,105.0,13.4,1505.3,324.6,-0.7,1.8,2470.259,13.32,0.036,122.8
2020-01-18T01:04:03,42.805,6.029,0.043,-0.013,-0.041,110.0,114.0,105.0,13.4,1505.2,326.2,-0.8,1.8,2470.279,13.3,0.044,106.8
2020-01-18T01:07:03,42.805,6.029,0.04,-0.013,-0.043,110.0,110.0,105.0,13.4,1505.3,328.1,-0.7,1.8,2470.324,13.31,0.042,108.0
2020-01-18T01:10:03,42.805,6.029,0.034,-0.036,-0.047,109.0,110.0,104.0,13.4,1505.3,326.2,-0.7,1.8,2470.257,13.32,0.049,136.6
2020-01-18T01:13:03,42.805,6.029,0.039,-0.021,-0.015,110.0,110.0,104.0,13.4,1505.3,328.4,-0.7,1.8,2470.298,13.32,0.044,118.3
2020-01-18T01:16:03,42.805,6.029,0.072,-0.02,-0.012,108.0,110.0,105.0,13.3,1505.3,323.5,-0.7,1.8,2470.302,13.32,0.074,105.5
2020-01-18T01:19:03,42.805,6.029,0.029,-0.021,-0.016,108.0,112.0,104.0,13.4,1505.3,326.6,-0.7,1.9,2470.285,13.32,0.035,125.9
2020-01-18T01:25:03,42.805,6.029,0.05,-0.028,-0.024,109.0,110.0,106.0,13.4,1505.2,327.0,-0.7,1.8,2470.287,13.3,0.057,119.3
2020-01-18T01:28:03,42.805,6.029,0.023,-0.009,-0.026,110.0,111.0,104.0,13.4,1505.3,325.5,-0.6,1.8,2470.29,13.31,0.024,111.4
2020-01-18T01:31:03,42.805,6.029,0.031,-0.015,-0.03,108.0,109.0,105.0,13.4,1505.3,323.8,-0.7,1.8,2470.301,13.32,0.034,115.8
2020-01-18T01:34:03,42.805,6.029,0.059,-0.009,-0.008,109.0,110.0,104.0,13.4,1505.3,325.9,-0.7,1.8,2470.308,13.32,0.059,98.7
2020-01-18T01:37:03,42.805,6.029,0.041,0.016,-0.024,109.0,110.0,106.0,13.4,1505.3,324.4,-0.7,1.8,2470.271,13.32,0.044,68.7
2020-01-18T01:40:03,42.805,6.029,0.035,-0.013,0.014,110.0,112.0,105.0,13.3,1505.3,325.4,-0.7,1.9,2470.286,13.32,0.037,110.4
2020-01-18T01:43:03,42.805,6.029,0.022,-0.004,-0.003,110.0,112.0,105.0,13.4,1505.3,326.5,-0.7,1.8,2470.259,13.32,0.022,100.3
2020-01-18T01:46:03,42.805,6.029,0.027,-0.032,0.006,110.0,111.0,105.0,13.4,1505.3,325.0,-0.7,1.8,2470.268,13.32,0.041,139.8
2020-01-18T01:49:03,42.805,6.029,0.037,-0.001,-0.01,109.0,111.0,105.0,13.4,1505.3,325.9,-0.7,1.9,2470.287,13.32,0.037,91.5
2020-01-18T01:52:03,42.805,6.029,0.03,-0.017,-0.029,109.0,111.0,105.0,13.3,1505.3,324.6,-0.7,1.8,2470.29,13.32,0.034,119.5
2020-01-18T01:55:03,42.805,6.029,0.025,-0.026,-0.043,109.0,112.0,105.0,13.3,1505.3,324.7,-0.7,1.8,2470.266,13.32,0.036,136.1
2020-01-18T01:58:03,42.805,6.029,0.038,-0.039,-0.028,110.0,112.0,104.0,13.3,1505.3,324.5,-0.7,1.8,2470.314,13.32,0.054,135.7
2020-01-18T02:04:03,42.805,6.029,0.026,-0.007,-0.028,109.0,111.0,104.0,13.4,1505.2,326.3,-0.7,1.8,2470.292,13.3,0.026,105.1
2020-01-18T02:07:03,42.805,6.029,0.017,-0.002,-0.01,110.0,111.0,104.0,13.3,1505.3,326.4,-0.7,1.9,2470.29,13.31,0.017,96.7
2020-01-18T02:10:03,42.805,6.029,0.029,-0.004,-0.012,110.0,111.0,105.0,13.4,1505.3,326.7,-0.7,1.9,2470.244,13.31,0.029,97.8
2020-01-18T02:13:03,42.805,6.029,0.035,-0.014,-0.002,109.0,109.0,105.0,13.3,1505.3,325.6,-0.7,1.8,2470.252,13.32,0.037,111.8
2020-01-18T02:16:03,42.805,6.029,0.013,-0.02,-0.003,110.0,110.0,104.0,13.4,1505.3,327.3,-0.7,1.8,2470.226,13.32,0.023,147.0
2020-01-18T02:19:03,42.805,6.029,0.047,-0.006,-0.016,108.0,111.0,105.0,13.4,1505.3,324.5,-0.7,1.8,2470.281,13.32,0.047,97.3
2020-01-18T02:22:03,42.805,6.029,0.035,-0.018,0.004,108.0,112.0,105.0,13.4,1505.3,324.9,-0.7,1.9,2470.268,13.32,0.039,117.2
2020-01-18T02:25:03,42.805,6.029,0.04,-0.031,-0.011,110.0,111.0,105.0,13.3,1505.3,324.3,-0.7,1.8,2470.246,13.32,0.05,127.8
2020-01-18T02:28:03,42.805,6.029,0.024,-0.005,-0.001,108.0,110.0,104.0,13.4,1505.3,325.2,-0.7,1.8,2470.349,13.32,0.024,101.8
2020-01-18T02:31:03,42.805,6.029,0.017,-0.01,-0.017,110.0,111.0,106.0,13.4,1505.3,327.2,-0.7,1.8,2470.249,13.32,0.019,120.5
2020-01-18T02:34:03,42.805,6.029,0.047,-0.024,-0.021,109.0,110.0,104.0,13.3,1505.3,323.5,-0.7,1.9,2470.289,13.32,0.052,117.0
2020-01-18T02:37:03,42.805,6.029,0.031,-0.02,-0.001,110.0,110.0,105.0,13.3,1505.3,328.6,-0.7,1.9,2470.248,13.33,0.036,122.8
2020-01-18T02:40:03,42.805,6.029,0.03,-0.024,0.007,111.0,111.0,106.0,13.4,1505.3,324.2,-0.6,1.8,2470.253,13.33,0.038,128.7
2020-01-18T02:43:03,42.805,6.029,0.039,-0.028,-0.071,109.0,110.0,104.0,13.4,1505.3,323.6,-0.7,1.8,2470.28,13.33,0.048,125.7
2020-01-18T02:46:03,42.805,6.029,0.021,0.0,-0.003,110.0,112.0,106.0,13.4,1505.3,328.6,-0.7,1.8,2470.24,13.33,0.021,90.0
2020-01-18T02:49:03,42.805,6.029,0.034,-0.001,-0.007,110.0,111.0,106.0,13.4,1505.3,326.8,-0.7,1.8,2470.225,13.32,0.034,91.7
2020-01-18T02:55:03,42.805,6.029,0.024,-0.024,-0.051,111.0,112.0,105.0,13.4,1505.3,324.5,-0.7,1.8,2470.298,13.31,0.033,135.0
2020-01-18T02:58:03,42.805,6.029,0.026,0.005,-0.007,109.0,111.0,105.0,13.4,1505.3,325.0,-0.7,1.9,2470.253,13.31,0.026,79.1
2020-01-18T03:04:03,42.805,6.029,0.046,-0.006,-0.032,110.0,111.0,105.0,13.4,1505.2,323.5,-0.8,1.8,2470.302,13.3,0.046,97.4
2020-01-18T03:07:03,42.805,6.029,0.029,-0.004,0.001,111.0,112.0,105.0,13.3,1505.3,325.9,-0.7,1.8,2470.253,13.31,0.029,97.8
2020-01-18T03:10:03,42.805,6.029,0.031,-0.017,-0.02,109.0,111.0,105.0,13.4,1505.3,328.5,-0.7,1.8,2470.292,13.32,0.035,118.7
2020-01-18T03:13:03,42.805,6.029,0.026,0.007,-0.023,111.0,111.0,106.0,13.4,1505.3,326.8,-0.7,1.8,2470.288,13.32,0.026,74.9
2020-01-18T03:16:03,42.805,6.029,0.03,-0.003,0.004,110.0,112.0,106.0,13.4,1505.3,328.0,-0.7,1.8,2470.283,13.32,0.03,95.7
2020-01-18T03:19:03,42.805,6.029,0.037,0.007,0.004,110.0,111.0,106.0,13.4,1505.3,326.8,-0.7,1.8,2470.275,13.32,0.037,79.3
2020-01-18T03:22:03,42.805,6.029,0.034,-0.018,0.004,111.0,112.0,106.0,13.4,1505.3,327.1,-0.7,1.8,2470.303,13.32,0.038,117.9
2020-01-18T03:25:03,42.805,6.029,0.01,-0.044,-0.022,111.0,112.0,106.0,13.3,1505.3,326.7,-0.7,1.8,2470.246,13.32,0.045,167.2
2020-01-18T03:31:03,42.805,6.029,0.031,-0.004,-0.034,111.0,114.0,106.0,13.4,1505.3,323.0,-0.8,1.8,2470.273,13.31,0.031,97.3
2020-01-18T03:34:03,42.805,6.029,0.037,-0.006,0.012,112.0,113.0,105.0,13.3,1505.3,326.0,-0.7,1.9,2470.264,13.31,0.037,99.2
2020-01-18T03:37:03,42.805,6.029,0.021,-0.026,-0.033,111.0,113.0,106.0,13.3,1505.3,328.5,-0.7,1.8,2470.364,13.32,0.033,141.1
2020-01-18T03:40:03,42.805,6.029,0.046,0.0,-0.019,111.0,111.0,105.0,13.4,1505.3,323.7,-0.7,1.8,2470.29,13.32,0.046,90.0
2020-01-18T03:43:03,42.805,6.029,0.031,-0.021,0.005,111.0,110.0,106.0,13.4,1505.3,325.5,-0.7,1.8,2470.276,13.32,0.037,124.1
2020-01-18T03:46:03,42.805,6.029,0.02,-0.023,-0.054,109.0,113.0,105.0,13.3,1505.3,324.4,-0.7,1.9,2470.29,13.32,0.03,139.0
2020-01-18T03:49:03,42.805,6.029,0.042,-0.02,-0.021,111.0,112.0,105.0,13.3,1505.3,328.6,-0.7,1.8,2470.244,13.32,0.046,115.5
2020-01-18T03:55:03,42.805,6.029,0.046,-0.005,-0.028,110.0,112.0,106.0,13.3,1505.3,327.4,-0.8,1.8,2470.285,13.31,0.046,96.2
2020-01-18T03:58:03,42.805,6.029,0.032,-0.023,0.019,111.0,112.0,106.0,13.3,1505.3,325.0,-0.7,1.9,2470.248,13.31,0.039,125.7
2020-01-18T04:04:03,42.805,6.029,0.038,-0.019,0.035,109.0,112.0,106.0,13.4,1505.2,323.8,-0.8,1.8,2470.29,13.3,0.042,116.6
2020-01-18T04:07:03,42.805,6.029,0.044,-0.026,0.003,110.0,111.0,106.0,13.4,1505.3,324.0,-0.8,1.8,2470.284,13.31,0.051,120.6
2020-01-18T04:10:03,42.805,6.029,0.05,-0.011,-0.015,109.0,111.0,106.0,13.4,1505.3,328.7,-0.7,1.8,2470.286,13.31,0.051,102.4
2020-01-18T04:13:03,42.805,6.029,0.006,-0.021,-0.016,110.0,110.0,106.0,13.3,1505.3,327.7,-0.7,1.9,2470.242,13.32,0.021,164.1
2020-01-18T04:16:03,42.805,6.029,0.03,-0.026,0.034,110.0,111.0,106.0,13.4,1505.3,325.5,-0.8,1.8,2470.275,13.32,0.039,130.9
2020-01-18T04:19:03,42.805,6.029,0.06,-0.023,-0.005,111.0,112.0,106.0,13.4,1505.3,327.4,-0.7,1.8,2470.274,13.32,0.064,111.0
2020-01-18T04:22:03,42.805,6.029,0.034,-0.002,-0.037,110.0,110.0,106.0,13.3,1505.3,323.0,-0.7,1.9,2470.232,13.32,0.034,93.4
2020-01-18T04:25:03,42.805,6.029,0.044,-0.013,-0.039,112.0,112.0,105.0,13.3,1505.3,324.2,-0.7,1.9,2470.243,13.32,0.045,106.5
2020-01-18T04:28:03,42.805,6.029,0.004,-0.029,-0.007,111.0,111.0,105.0,13.4,1505.3,327.7,-0.7,1.8,2470.241,13.32,0.029,172.2
2020-01-18T04:31:03,42.805,6.029,0.046,-0.013,-0.035,111.0,110.0,106.0,13.4,1505.3,323.0,-0.7,1.9,2470.187,13.32,0.047,105.8
2020-01-18T04:34:03,42.805,6.029,0.024,-0.008,-0.003,110.0,112.0,106.0,13.4,1505.3,325.4,-0.7,1.8,2470.225,13.32,0.025,108.4
2020-01-18T04:37:03,42.805,6.029,0.033,-0.021,-0.033,111.0,112.0,105.0,13.3,1505.3,327.1,-0.7,1.9,2470.238,13.33,0.039,122.5
2020-01-18T04:40:03,42.805,6.029,0.02,-0.008,-0.027,110.0,111.0,107.0,13.3,1505.3,326.4,-0.7,1.8,2470.207,13.32,0.021,111.8
2020-01-18T04:43:03,42.805,6.029,0.059,-0.021,-0.021,110.0,111.0,107.0,13.4,1505.3,327.3,-0.7,1.8,2470.193,13.33,0.062,109.6
2020-01-18T04:46:03,42.805,6.029,0.019,0.012,0.004,110.0,113.0,107.0,13.3,1505.3,325.0,-0.7,1.8,2470.236,13.33,0.022,57.7
2020-01-18T04:49:03,42.805,6.029,0.018,-0.007,0.011,111.0,111.0,107.0,13.4,1505.3,323.2,-0.7,1.9,2470.253,13.33,0.019,111.2
2020-01-18T04:52:03,42.805,6.029,0.032,-0.016,-0.007,110.0,111.0,106.0,13.4,1505.3,327.6,-0.7,1.8,2470.249,13.33,0.035,116.6
2020-01-18T04:55:03,42.805,6.029,0.047,0.002,-0.036,111.0,112.0,108.0,13.4,1505.3,326.2,-0.7,1.8,2470.201,13.33,0.047,87.6
2020-01-18T04:58:03,42.805,6.029,0.014,-0.021,-0.012,112.0,112.0,106.0,13.3,1505.3,326.0,-0.7,1.8,2470.24,13.33,0.025,146.3
2020-01-18T05:04:03,42.805,6.029,0.019,-0.037,-0.033,111.0,113.0,106.0,13.4,1505.3,326.9,-0.8,1.8,2470.246,13.31,0.041,152.8
2020-01-18T05:07:03,42.805,6.029,0.038,0.004,0.012,110.0,111.0,107.0,13.3,1505.3,324.5,-0.7,1.8,2470.231,13.31,0.038,84.0
2020-01-18T05:10:03,42.805,6.029,0.02,-0.019,-0.008,112.0,113.0,107.0,13.4,1505.3,325.9,-0.7,1.8,2470.23,13.32,0.027,133.5
2020-01-18T05:13:03,42.805,6.029,0.043,-0.02,0.003,110.0,111.0,106.0,13.3,1505.3,323.1,-0.7,1.8,2470.247,13.32,0.047,114.9
2020-01-18T05:16:03,42.805,6.029,0.005,0.015,-0.022,111.0,111.0,107.0,13.4,1505.3,327.9,-0.7,1.9,2470.186,13.32,0.015,18.4
2020-01-18T05:19:03,42.805,6.029,0.032,-0.014,-0.032,110.0,110.0,107.0,13.3,1505.3,326.1,-0.7,1.8,2470.207,13.32,0.034,113.6
2020-01-18T05:22:03,42.805,6.029,0.005,-0.006,-0.022,110.0,111.0,106.0,13.4,1505.3,326.5,-0.7,1.8,2470.215,13.32,0.007,140.2
2020-01-18T05:25:03,42.805,6.029,0.01,-0.024,0.008,113.0,112.0,106.0,13.3,1505.3,323.6,-0.7,1.8,2470.211,13.32,0.026,157.4
2020-01-18T05:28:03,42.805,6.029,0.017,-0.034,-0.037,111.0,112.0,105.0,13.4,1505.3,328.2,-0.7,1.8,2470.215,13.33,0.038,153.4
2020-01-18T05:31:03,42.805,6.029,0.011,-0.01,0.005,109.0,111.0,106.0,13.4,1505.3,326.9,-0.7,1.8,2470.18,13.33,0.014,132.3
2020-01-18T05:34:03,42.805,6.029,-0.014,-0.015,-0.033,112.0,112.0,107.0,13.4,1505.3,324.5,-0.7,1.8,2470.221,13.33,0.02,223.0
2020-01-18T05:37:03,42.805,6.029,0.047,-0.007,0.043,111.0,111.0,107.0,13.4,1505.3,324.8,-0.7,1.8,2470.197,13.33,0.047,98.5
2020-01-18T05:40:03,42.805,6.029,0.017,-0.03,-0.007,111.0,114.0,107.0,13.4,1505.3,324.6,-0.7,1.8,2470.203,13.33,0.034,150.5
2020-01-18T05:43:03,42.805,6.029,0.016,-0.024,-0.033,113.0,112.0,107.0,13.4,1505.3,328.3,-0.7,1.8,2470.198,13.33,0.028,146.3
2020-01-18T05:49:03,42.805,6.029,0.023,-0.007,-0.03,112.0,112.0,106.0,13.4,1505.3,323.0,-0.8,1.8,2470.248,13.31,0.024,106.9
2020-01-18T05:52:03,42.805,6.029,0.051,-0.016,0.015,111.0,112.0,106.0,13.4,1505.3,326.5,-0.7,1.9,2470.207,13.31,0.053,107.4
2020-01-18T05:55:03,42.805,6.029,0.028,-0.019,0.047,110.0,113.0,107.0,13.4,1505.3,324.7,-0.7,1.8,2470.262,13.32,0.033,124.2
2020-01-18T05:58:03,42.805,6.029,0.033,-0.017,-0.023,111.0,112.0,107.0,13.3,1505.3,327.3,-0.7,1.9,2470.236,13.32,0.037,117.3
2020-01-18T06:04:03,42.805,6.029,0.005,-0.016,-0.04,110.0,112.0,106.0,13.3,1505.2,327.8,-0.7,1.8,2470.271,13.3,0.016,162.6
2020-01-18T06:07:03,42.805,6.029,0.025,-0.022,-0.036,112.0,111.0,106.0,13.3,1505.3,325.0,-0.7,1.8,2470.237,13.31,0.033,131.3
2020-01-18T06:10:03,42.805,6.029,0.025,-0.022,-0.006,112.0,112.0,106.0,13.3,1505.3,326.3,-0.7,1.8,2470.236,13.32,0.033,131.3
2020-01-18T06:13:03,42.805,6.029,0.034,-0.012,-0.009,112.0,112.0,107.0,13.3,1505.3,325.3,-0.7,1.9,2470.229,13.32,0.036,109.4
2020-01-18T06:16:03,42.805,6.029,0.028,-0.009,0.008,112.0,112.0,107.0,13.3,1505.3,325.4,-0.7,1.9,2470.25,13.32,0.029,107.8
2020-01-18T06:19:03,42.805,6.029,0.028,-0.013,-0.006,113.0,113.0,106.0,13.3,1505.3,324.3,-0.7,1.8,2470.24,13.32,0.03,114.9
2020-01-18T06:22:03,42.805,6.029,0.028,-0.009,-0.012,111.0,112.0,106.0,13.3,1505.3,325.5,-0.7,1.8,2470.256,13.32,0.029,107.8
2020-01-18T06:25:03,42.805,6.029,0.011,-0.016,-0.039,112.0,111.0,108.0,13.3,1505.3,325.4,-0.7,1.8,2470.19,13.33,0.019,145.5
2020-01-18T06:28:03,42.805,6.029,0.027,-0.034,-0.008,111.0,112.0,107.0,13.4,1505.3,326.7,-0.8,1.9,2470.258,13.33,0.043,141.5
2020-01-18T06:31:03,42.805,6.029,0.019,-0.01,-0.011,111.0,111.0,108.0,13.4,1505.3,326.0,-0.7,1.9,2470.232,13.33,0.021,117.8
2020-01-18T06:34:03,42.805,6.029,0.043,0.0,-0.013,111.0,111.0,107.0,13.4,1505.3,328.6,-0.7,1.8,2470.224,13.33,0.043,90.0
2020-01-18T06:37:03,42.805,6.029,0.025,-0.011,0.003,111.0,112.0,105.0,13.4,1505.3,326.7,-0.7,1.8,2470.188,13.33,0.027,113.7
2020-01-18T06:40:03,42.805,6.029,0.013,-0.015,-0.004,110.0,112.0,105.0,13.4,1505.3,323.3,-0.7,1.8,2470.188,13.33,0.019,139.1
2020-01-18T06:43:03,42.805,6.029,0.028,-0.016,-0.023,111.0,112.0,106.0,13.4,1505.3,326.0,-0.7,1.8,2470.189,13.33,0.032,119.7
2020-01-18T06:46:03,42.805,6.029,0.008,-0.027,-0.019,112.0,113.0,106.0,13.4,1505.3,325.7,-0.7,1.9,2470.22,13.33,0.028,163.5
2020-01-18T06:49:03,42.805,6.029,0.014,-0.022,-0.022,111.0,113.0,106.0,13.4,1505.3,324.5,-0.7,1.8,2470.191,13.33,0.026,147.5
2020-01-18T06:52:03,42.805,6.029,0.009,0.001,-0.002,112.0,112.0,107.0,13.4,1505.3,326.7,-0.7,1.8,2470.177,13.33,0.009,83.7
2020-01-18T06:55:03,42.805,6.029,0.023,-0.019,-0.019,111.0,112.0,107.0,13.3,1505.3,327.9,-0.7,1.8,2470.167,13.33,0.029,129.6
2020-01-18T06:58:03,42.805,6.029,0.009,0.009,-0.024,112.0,113.0,105.0,13.4,1505.3,325.3,-0.7,1.8,2470.195,13.33,0.012,45.0
2020-01-18T07:04:03,42.805,6.029,-0.014,-0.014,-0.039,112.0,113.0,108.0,13.4,1505.3,326.9,-0.8,1.8,2470.212,13.31,0.019,225.0
2020-01-18T07:07:03,42.805,6.029,0.009,-0.008,-0.002,111.0,113.0,107.0,13.3,1505.3,325.5,-0.7,1.8,2470.208,13.31,0.012,131.6
2020-01-18T07:10:03,42.805,6.029,0.003,-0.03,-0.011,111.0,114.0,107.0,13.4,1505.3,326.9,-0.7,1.8,2470.199,13.32,0.03,174.3
2020-01-18T07:13:03,42.805,6.029,-0.002,-0.024,-0.006,112.0,112.0,108.0,13.4,1505.3,326.6,-0.7,1.8,2470.188,13.32,0.024,184.8
2020-01-18T07:16:03,42.805,6.029,0.029,-0.02,0.0,112.0,112.0,107.0,13.4,1505.3,323.3,-0.7,1.8,2470.197,13.32,0.035,124.6
2020-01-18T07:19:03,42.805,6.029,0.023,-0.023,-0.029,111.0,113.0,107.0,13.3,1505.3,326.9,-0.7,1.9,2470.18,13.32,0.032,135.0
2020-01-18T07:22:03,42.805,6.029,0.015,-0.034,-0.029,113.0,114.0,108.0,13.4,1505.3,326.1,-0.8,1.8,2470.222,13.32,0.037,156.2
2020-01-18T07:25:03,42.805,6.029,0.019,-0.018,-0.026,111.0,113.0,107.0,13.4,1505.3,324.5,-0.7,1.9,2470.172,13.33,0.026,133.5
2020-01-18T07:28:03,42.805,6.029,0.044,0.001,-0.014,112.0,113.0,107.0,13.4,1505.3,323.3,-0.7,1.8,2470.194,13.33,0.044,88.7
2020-01-18T07:31:03,42.805,6.029,0.012,-0.024,-0.02,112.0,113.0,107.0,13.4,1505.3,326.8,-0.7,1.9,2470.165,13.33,0.026,153.4
2020-01-18T07:34:03,42.805,6.029,0.038,-0.035,-0.038,112.0,113.0,107.0,13.4,1505.3,325.4,-0.7,1.8,2470.188,13.33,0.051,132.6
2020-01-18T07:37:03,42.805,6.029,0.018,-0.009,-0.008,113.0,112.0,106.0,13.4,1505.3,325.0,-0.7,1.8,2470.222,13.33,0.02,116.6
2020-01-18T07:40:03,42.805,6.029,0.019,-0.007,-0.009,112.0,112.0,108.0,13.4,1505.3,326.8,-0.7,1.9,2470.197,13.33,0.02,110.2
2020-01-18T07:43:03,42.805,6.029,0.023,-0.005,0.004,111.0,112.0,108.0,13.3,1505.3,326.8,-0.7,1.8,2470.215,13.33,0.023,102.3
2020-01-18T07:46:03,42.805,6.029,0.009,-0.017,-0.054,112.0,113.0,107.0,13.4,1505.3,327.3,-0.7,1.8,2470.2,13.33,0.019,152.1
2020-01-18T07:49:03,42.805,6.029,0.001,-0.006,-0.013,112.0,112.0,106.0,13.4,1505.3,325.9,-0.7,1.8,2470.212,13.33,0.006,170.5
2020-01-18T07:52:03,42.805,6.029,0.022,-0.014,-0.022,112.0,114.0,106.0,13.3,1505.3,325.8,-0.7,1.8,2470.249,13.33,0.026,122.5
2020-01-18T07:55:03,42.805,6.029,0.014,-0.023,-0.039,111.0,113.0,108.0,13.3,1505.3,323.3,-0.7,1.9,2470.202,13.33,0.026,148.7
2020-01-18T07:58:03,42.805,6.029,0.042,-0.027,-0.012,111.0,112.0,108.0,13.4,1505.3,326.7,-0.7,1.8,2470.186,13.33,0.049,122.7
2020-01-18T08:04:03,42.805,6.029,0.033,-0.014,0.009,111.0,111.0,106.0,13.4,1505.3,326.3,-0.8,1.8,2470.199,13.31,0.035,113.0
2020-01-18T08:07:03,42.805,6.029,0.034,-0.006,-0.018,111.0,112.0,107.0,13.4,1505.3,325.0,-0.7,1.8,2470.227,13.31,0.034,100.0
2020-01-18T08:10:03,42.805,6.029,0.019,-0.006,-0.004,112.0,112.0,107.0,13.4,1505.3,325.5,-0.7,1.8,2470.193,13.32,0.019,107.5
2020-01-18T08:13:03,42.805,6.029,0.039,-0.025,-0.035,110.0,113.0,107.0,13.3,1505.3,323.2,-0.7,1.9,2470.22,13.32,0.046,122.7
2020-01-18T08:16:03,42.805,6.029,0.027,-0.004,0.006,110.0,111.0,107.0,13.4,1505.3,328.2,-0.8,1.8,2470.187,13.32,0.027,98.4
2020-01-18T08:19:03,42.805,6.029,0.031,-0.018,-0.017,110.0,110.0,107.0,13.4,1505.3,326.6,-0.7,1.9,2470.213,13.32,0.035,120.1
2020-01-18T08:22:03,42.805,6.029,0.014,-0.004,-0.016,110.0,111.0,106.0,13.4,1505.3,324.4,-0.7,1.9,2470.193,13.32,0.014,105.9
2020-01-18T08:25:03,42.805,6.029,0.016,-0.016,-0.039,111.0,111.0,106.0,13.4,1505.3,326.6,-0.7,1.8,2470.198,13.32,0.022,135.0
2020-01-18T08:28:03,42.805,6.029,0.031,0.001,0.0,110.0,111.0,106.0,13.3,1505.3,326.4,-0.7,1.9,2470.191,13.32,0.031,88.2
2020-01-18T08:31:03,42.805,6.029,0.022,-0.026,-0.024,112.0,111.0,107.0,13.3,1505.3,326.6,-0.7,1.8,2470.183,13.32,0.034,139.8
2020-01-18T08:34:03,42.805,6.029,0.023,-0.022,-0.01,110.0,113.0,106.0,13.4,1505.3,323.8,-0.7,1.8,2470.218,13.33,0.031,133.7
2020-01-18T08:37:03,42.805,6.029,-0.002,-0.026,0.0,110.0,111.0,106.0,13.4,1505.3,328.2,-0.7,1.8,2470.228,13.33,0.026,184.4
2020-01-18T08:40:03,42.805,6.029,0.017,-0.007,-0.012,110.0,111.0,105.0,13.4,1505.3,324.9,-0.7,1.8,2470.19,13.33,0.018,112.4
2020-01-18T08:43:03,42.805,6.029,0.025,-0.022,-0.013,111.0,111.0,106.0,13.4,1505.3,325.7,-0.7,1.8,2470.204,13.33,0.033,131.3
2020-01-18T08:46:03,42.805,6.029,0.024,-0.004,-0.002,109.0,111.0,106.0,13.4,1505.3,323.3,-0.7,1.9,2470.174,13.33,0.024,99.5
2020-01-18T08:49:03,42.805,6.029,0.014,-0.016,-0.025,110.0,112.0,106.0,13.3,1505.3,328.4,-0.7,1.9,2470.197,13.33,0.021,138.8
2020-01-18T08:52:03,42.805,6.029,0.032,-0.009,0.015,112.0,111.0,106.0,13.3,1505.3,324.9,-0.7,1.8,2470.215,13.33,0.033,105.7
2020-01-18T08:55:03,42.805,6.029,0.018,-0.018,-0.022,109.0,111.0,105.0,13.3,1505.3,323.6,-0.7,1.8,2470.191,13.33,0.025,135.0
2020-01-18T08:58:03,42.805,6.029,0.026,-0.011,-0.036,110.0,110.0,106.0,13.4,1505.3,327.2,-0.7,1.8,2470.178,13.33,0.028,112.9
2020-01-18T09:04:03,42.805,6.029,0.014,-0.016,-0.026,110.0,111.0,106.0,13.4,1505.3,326.1,-0.7,1.8,2470.186,13.31,0.021,138.8
2020-01-18T09:07:03,42.805,6.029,0.016,-0.013,-0.038,113.0,110.0,105.0,13.4,1505.3,326.2,-0.7,1.8,2470.222,13.31,0.02,129.1
2020-01-18T09:10:03,42.805,6.029,0.031,0.006,-0.011,109.0,111.0,106.0,13.4,1505.3,326.2,-0.8,1.8,2470.185,13.32,0.031,79.0
2020-01-18T09:13:03,42.805,6.029,0.009,-0.019,-0.022,110.0,111.0,106.0,13.3,1505.3,323.4,-0.8,1.8,2470.245,13.32,0.021,154.7
2020-01-18T09:16:03,42.805,6.029,0.032,-0.02,0.001,109.0,112.0,105.0,13.4,1505.3,326.7,-0.7,1.8,2470.243,13.32,0.037,122.0
2020-01-18T09:19:03,42.805,6.029,0.033,-0.024,-0.043,111.0,111.0,104.0,13.4,1505.3,326.3,-0.7,1.8,2470.252,13.32,0.04,126.0
2020-01-18T09:22:03,42.805,6.029,0.033,-0.009,-0.016,111.0,111.0,105.0,13.3,1505.3,323.0,-0.7,1.9,2470.21,13.32,0.034,105.3
2020-01-18T09:28:03,42.805,6.029,0.028,-0.016,-0.026,109.0,111.0,105.0,13.3,1505.2,323.2,-0.8,1.8,2470.249,13.3,0.032,119.7
2020-01-18T09:31:03,42.805,6.029,0.048,-0.007,-0.03,109.0,109.0,105.0,13.3,1505.3,325.8,-0.7,1.9,2470.21,13.31,0.048,98.3
2020-01-18T09:34:03,42.805,6.029,0.011,0.0,-0.015,109.0,112.0,105.0,13.4,1505.3,325.9,-0.7,1.8,2470.235,13.32,0.011,90.0
2020-01-18T09:37:03,42.805,6.029,0.04,-0.011,-0.021,108.0,110.0,105.0,13.4,1505.3,327.1,-0.7,1.8,2470.241,13.32,0.041,105.4
2020-01-18T09:40:03,42.805,6.029,0.017,-0.028,-0.015,110.0,112.0,105.0,13.3,1505.3,326.2,-0.7,1.8,2470.254,13.32,0.032,148.7
2020-01-18T09:43:03,42.805,6.029,0.041,0.0,-0.011,110.0,112.0,105.0,13.3,1505.3,327.9,-0.7,1.8,2470.214,13.32,0.041,90.0
2020-01-18T09:46:03,42.805,6.029,0.046,-0.01,0.004,110.0,113.0,106.0,13.4,1505.3,327.0,-0.7,1.8,2470.231,13.32,0.047,102.3
2020-01-18T09:49:03,42.805,6.029,0.057,-0.016,0.006,110.0,113.0,106.0,13.3,1505.3,328.4,-0.7,1.8,2470.231,13.32,0.059,105.7
2020-01-18T09:52:03,42.805,6.029,0.038,0.009,0.001,111.0,112.0,106.0,13.3,1505.3,326.4,-0.7,1.8,2470.227,13.32,0.039,76.7
2020-01-18T09:55:03,42.805,6.029,0.037,0.008,-0.009,111.0,113.0,106.0,13.3,1505.3,328.4,-0.7,1.8,2470.266,13.32,0.037,77.8
2020-01-18T09:58:03,42.805,6.029,0.057,-0.013,0.032,112.0,114.0,106.0,13.4,1505.3,322.8,-0.7,1.8,2470.25,13.32,0.058,102.8
2020-01-18T10:04:03,42.805,6.029,-0.002,-0.011,-0.022,111.0,113.0,107.0,13.4,1505.2,326.6,-0.8,1.8,2470.297,13.3,0.011,190.3
2020-01-18T10:07:03,42.805,6.029,0.033,-0.005,-0.009,110.0,112.0,104.0,13.3,1505.3,323.5,-0.7,1.8,2470.273,13.31,0.033,98.6
2020-01-18T10:10:03,42.805,6.029,0.041,-0.015,0.007,110.0,113.0,107.0,13.4,1505.3,327.0,-0.7,1.8,2470.251,13.32,0.043,110.1
2020-01-18T10:13:03,42.805,6.029,0.042,-0.013,-0.038,111.0,113.0,106.0,13.4,1505.3,326.7,-0.7,1.8,2470.258,13.32,0.043,107.2
2020-01-18T10:16:03,42.805,6.029,0.051,0.003,0.002,109.0,113.0,106.0,13.4,1505.3,324.1,-0.7,1.8,2470.265,13.32,0.051,86.6